Hazlehurst, GA

7:44 PM EST on November 13, 2019 (GMT -0500)
Hazlehurst

Weather History for KAZE - September, 2019

Change the Weather History Date:

Friday, September 20, 2019

  Actual Average Record
Temperature  
Mean Temperature 76 °F -  
Max Temperature 88 °F 86 °F 94 °F (2018)
Min Temperature 63 °F 58 °F 63 °F (2019)
Cooling Degree Days 10    
Growing Degree Days 26 (Base 50)    
Moisture  
Dew Point 57 °F    
Average Humidity 56    
Maximum Humidity 71    
Minimum Humidity 29    
Precipitation  
Precipitation 0.00 in - - ()
Sea Level Pressure  
Sea Level Pressure 30.21 in    
Wind  
Wind Speed 5 mph (East)    
Max Wind Speed 13 mph    
Max Gust Speed 20 mph    
Visibility 10 miles    
Events      
Averages and records for this station are not official NWS values.
T = Trace of Precipitation, MM = Missing Value Source: NWS Daily Summary

Daily Weather History Graph

Daily Weather History Graph

Search for Another Location

Airport or City:

Astronomy

Sep. 20, 2019 Rise Set
Actual Time 7:17 AM EDT 7:30 PM EDT
Civil Twilight 6:53 AM EDT 7:54 PM EDT
Nautical Twilight 6:24 AM EDT 8:22 PM EDT
Astronomical Twilight 5:55 AM EDT 8:51 PM EDT
Moon 11:40 PM EDT (9/20) 1:00 PM EDT (9/20)
Length of Visible Light 13h 01m
Length of Day
12h 12m
Waning Gibbous, 65% of the Moon is Illuminated
Sep 20
Waning Gibbous
Sep 21
Last Quarter
Sep 28
New
Oct 5
First Quarter
Oct 13
Full

Hourly Weather History & Observations

Time (EDT) Temp. Heat Index Dew Point Humidity Pressure Visibility Wind Dir Wind Speed Gust Speed Precip Events Conditions
12:10 AM 69.4 °F - 57.6 °F 66% 30.18 in 10.0 mi East 3.5 mph - N/A   Clear
12:30 AM 68.4 °F - 57.6 °F 68% 30.19 in 10.0 mi Calm Calm - N/A   Clear
12:50 AM 68.0 °F - 57.6 °F 69% 30.19 in 10.0 mi East 3.5 mph - N/A   Clear
1:10 AM 67.6 °F - 56.7 °F 68% 30.19 in 10.0 mi East 4.6 mph - N/A   Clear
1:30 AM 67.1 °F - 56.3 °F 68% 30.19 in 10.0 mi ENE 3.5 mph - N/A   Clear
1:50 AM 66.2 °F - 56.3 °F 70% 30.19 in 10.0 mi ENE 4.6 mph - N/A   Clear
2:10 AM 65.8 °F - 55.6 °F 69% 30.19 in 10.0 mi Calm Calm - N/A   Clear
2:30 AM 65.5 °F - 55.0 °F 69% 30.19 in 10.0 mi Calm Calm - N/A   Clear
2:50 AM 65.3 °F - 54.7 °F 68% 30.19 in 10.0 mi Calm Calm - N/A   Clear
3:10 AM 65.7 °F - 54.1 °F 66% 30.19 in 10.0 mi Calm Calm - N/A   Clear
3:30 AM 65.7 °F - 53.6 °F 65% 30.18 in 10.0 mi NE 3.5 mph - N/A   Clear
3:50 AM 65.3 °F - 53.2 °F 65% 30.18 in 10.0 mi ENE 3.5 mph - N/A   Clear
4:10 AM 65.3 °F - 53.1 °F 65% 30.18 in 10.0 mi Calm Calm - N/A   Clear
4:30 AM 65.3 °F - 53.1 °F 65% 30.18 in 10.0 mi ENE 3.5 mph - N/A   Clear
4:50 AM 64.8 °F - 53.1 °F 66% 30.18 in 10.0 mi NE 3.5 mph - N/A   Clear
5:10 AM 64.8 °F - 53.1 °F 66% 30.18 in 10.0 mi NE 4.6 mph - N/A   Clear
5:30 AM 64.6 °F - 53.1 °F 66% 30.19 in 10.0 mi NE 3.5 mph - N/A   Clear
5:50 AM 64.4 °F - 53.1 °F 67% 30.19 in 10.0 mi ENE 3.5 mph - N/A   Clear
6:10 AM 64.6 °F - 53.1 °F 66% 30.20 in 10.0 mi NE 3.5 mph - N/A   Clear
6:30 AM 64.0 °F - 53.1 °F 67% 30.20 in 10.0 mi NE 4.6 mph - N/A   Clear
6:50 AM 63.5 °F - 53.6 °F 70% 30.21 in 10.0 mi NNE 3.5 mph - N/A   Clear
7:10 AM 63.1 °F - 53.6 °F 71% 30.22 in 10.0 mi NE 3.5 mph - N/A   Clear
7:30 AM 63.1 °F - 53.6 °F 71% 30.22 in 10.0 mi Calm Calm - N/A   Clear
7:50 AM 63.5 °F - 54.0 °F 71% 30.23 in 10.0 mi NNE 3.5 mph - N/A   Clear
8:10 AM 64.6 °F - 54.1 °F 69% 30.24 in 10.0 mi Calm Calm - N/A   Clear
8:30 AM 66.0 °F - 54.3 °F 66% 30.24 in 10.0 mi NE 5.8 mph - N/A   Clear
9:10 AM 69.4 °F - 55.0 °F 60% 30.25 in 10.0 mi ENE 9.2 mph - N/A   Clear
9:50 AM 73.0 °F - 56.3 °F 56% 30.25 in 10.0 mi NE 6.9 mph - N/A   Clear
10:10 AM 74.8 °F - 56.7 °F 53% 30.25 in 10.0 mi ENE 9.2 mph - N/A   Clear
10:30 AM 76.3 °F - 57.2 °F 52% 30.26 in 10.0 mi East 6.9 mph - N/A   Clear
10:50 AM 77.9 °F - 57.6 °F 49% 30.26 in 10.0 mi ENE 11.5 mph - N/A   Clear
11:10 AM 79.5 °F - 58.1 °F 48% 30.25 in 10.0 mi East 11.5 mph 17.3 mph N/A   Clear
11:30 AM 80.6 °F 80.9 °F 58.3 °F 46% 30.25 in 10.0 mi ENE 10.4 mph - N/A   Clear
11:50 AM 81.5 °F 81.6 °F 58.3 °F 45% 30.25 in 10.0 mi East 8.1 mph - N/A   Clear
12:10 PM 82.4 °F 82.3 °F 58.3 °F 44% 30.25 in 10.0 mi NE 3.5 mph - N/A   Clear
12:50 PM 84.4 °F 83.7 °F 57.4 °F 40% 30.24 in 10.0 mi NE 6.9 mph - N/A   Clear
1:10 PM 85.6 °F 84.5 °F 56.7 °F 37% 30.23 in 10.0 mi East 9.2 mph - N/A   Clear
1:30 PM 85.3 °F 84.3 °F 57.0 °F 38% 30.23 in 10.0 mi ESE 4.6 mph - N/A   Clear
1:50 PM 86.0 °F 84.3 °F 54.7 °F 34% 30.22 in 10.0 mi ENE 9.2 mph - N/A   Clear
2:10 PM 87.8 °F - 52.9 °F 30% 30.21 in 10.0 mi ESE 10.4 mph 17.3 mph N/A   Scattered Clouds
2:30 PM 87.1 °F 84.9 °F 53.1 °F 31% 30.21 in 10.0 mi ESE 8.1 mph - N/A   Mostly Cloudy
2:50 PM 88.0 °F 85.9 °F 54.1 °F 31% 30.20 in 10.0 mi East 9.2 mph - N/A   Scattered Clouds
3:10 PM 86.7 °F - 52.0 °F 30% 30.19 in 10.0 mi East 6.9 mph 16.1 mph N/A   Scattered Clouds
3:30 PM 88.3 °F - 52.2 °F 29% 30.18 in 10.0 mi ENE 5.8 mph - N/A   Mostly Cloudy
3:50 PM 86.7 °F - 52.0 °F 30% 30.18 in 10.0 mi ESE 6.9 mph - N/A   Scattered Clouds
4:10 PM 85.6 °F 84.1 °F 54.7 °F 35% 30.18 in 10.0 mi East 6.9 mph 18.4 mph N/A   Mostly Cloudy
4:30 PM 85.8 °F 84.5 °F 55.9 °F 36% 30.18 in 10.0 mi East 6.9 mph - N/A   Mostly Cloudy
4:50 PM 85.3 °F 84.3 °F 56.7 °F 38% 30.18 in 10.0 mi East 10.4 mph 16.1 mph N/A   Scattered Clouds
5:10 PM 86.9 °F 85.3 °F 55.2 °F 34% 30.18 in 10.0 mi East 5.8 mph - N/A   Scattered Clouds
5:30 PM 85.5 °F 85.0 °F 59.0 °F 41% 30.18 in 10.0 mi East 12.7 mph 18.4 mph N/A   Mostly Cloudy
5:50 PM 84.2 °F 84.0 °F 59.5 °F 43% 30.18 in 10.0 mi East 8.1 mph - N/A   Mostly Cloudy
6:10 PM 84.2 °F 84.0 °F 59.5 °F 43% 30.18 in 10.0 mi ESE 8.1 mph - N/A   Mostly Cloudy
6:30 PM 82.2 °F 82.7 °F 61.0 °F 48% 30.19 in 10.0 mi ESE 10.4 mph 19.6 mph N/A   Mostly Cloudy
6:50 PM 79.3 °F - 62.8 °F 57% 30.20 in 10.0 mi ESE 6.9 mph 18.4 mph N/A   Scattered Clouds
7:10 PM 78.8 °F - 63.3 °F 59% 30.20 in 10.0 mi ESE 9.2 mph 17.3 mph N/A   Mostly Cloudy
7:30 PM 77.9 °F - 63.9 °F 62% 30.21 in 10.0 mi ESE 6.9 mph - N/A   Overcast
7:50 PM 77.2 °F - 63.9 °F 63% 30.21 in 10.0 mi ESE 5.8 mph - N/A   Overcast
8:10 PM 77.0 °F - 63.7 °F 63% 30.21 in 10.0 mi ESE 5.8 mph - N/A   Overcast
8:30 PM 77.0 °F - 63.0 °F 62% 30.22 in 10.0 mi ESE 11.5 mph 17.3 mph N/A   Overcast
8:50 PM 76.5 °F - 63.1 °F 63% 30.22 in 10.0 mi ESE 8.1 mph 16.1 mph N/A   Mostly Cloudy
9:10 PM 76.1 °F - 63.5 °F 65% 30.23 in 10.0 mi ESE 10.4 mph 16.1 mph N/A   Mostly Cloudy
9:30 PM 76.1 °F - 63.3 °F 64% 30.23 in 10.0 mi ESE 6.9 mph - N/A   Mostly Cloudy
9:50 PM 76.1 °F - 63.0 °F 64% 30.24 in 10.0 mi ESE 8.1 mph 16.1 mph N/A   Scattered Clouds
10:10 PM 75.6 °F - 63.5 °F 66% 30.24 in 10.0 mi East 8.1 mph - N/A   Scattered Clouds
10:30 PM 74.8 °F - 63.5 °F 68% 30.23 in 10.0 mi East 4.6 mph - N/A   Scattered Clouds
10:50 PM 74.7 °F - 63.7 °F 69% 30.23 in 10.0 mi East 4.6 mph - N/A   Scattered Clouds
11:10 PM 74.8 °F - 63.5 °F 68% 30.23 in 10.0 mi East 4.6 mph - N/A   Scattered Clouds
11:30 PM 75.0 °F - 63.5 °F 67% 30.23 in 10.0 mi East 4.6 mph - N/A   Mostly Cloudy
11:50 PM 75.2 °F - 63.5 °F 67% 30.23 in 10.0 mi East 5.8 mph - N/A   Mostly Cloudy